Location: Boiro
(42.6475°N, 8.8834°W)
Time: 22:11:40
(UTC+01:00)

SO-50 - Visible Passes

Search period start: 22 January 2022 00:00
Search period end: 01 February 2022 00:00
Orbit: 595 x 689 km, 64.6° (Epoch: 22 January)

Date Brightness Start Highest point End Pass type
(mag) Time Alt. Az. Time Alt. Az. Time Alt. Az.
22 Jan ? 05:53:14 11° SSE 05:53:14 11° SSE 05:53:20 10° SSE visible
22 Jan ? 19:58:43 10° S 20:02:27 26° ESE 20:02:59 25° E visible
22 Jan ? 21:38:26 10° WSW 21:40:39 25° W 21:40:39 25° W visible
23 Jan ? 20:22:31 10° SSW 20:26:58 63° ESE 20:27:59 48° ENE visible
23 Jan ? 22:04:23 10° W 22:05:39 15° WNW 22:05:39 15° WNW visible
24 Jan ? 19:08:47 10° SSE 19:11:45 18° ESE 19:14:48 10° ENE visible
24 Jan ? 20:47:16 10° SW 20:51:43 56° NW 20:52:53 43° N visible
25 Jan ? 19:31:55 10° S 19:36:10 41° ESE 19:40:01 13° NE visible
25 Jan ? 21:12:49 10° WSW 21:16:44 27° NW 21:17:40 25° NNW visible
26 Jan ? 19:56:16 10° SW 20:00:48 82° NW 20:04:43 15° NNE visible
26 Jan ? 21:39:18 10° WNW 21:42:00 15° NW 21:42:22 15° NNW visible
27 Jan ? 20:21:27 10° WSW 20:25:41 37° NW 20:29:20 14° NNE visible
28 Jan ? 19:05:26 10° SSW 19:09:55 67° ESE 19:14:34 10° NE visible
28 Jan ? 20:47:28 10° W 20:50:50 20° NW 20:53:51 12° N visible
29 Jan ? 19:30:15 10° SW 19:34:41 53° NW 19:39:17 10° NNE visible
29 Jan ? 21:14:43 10° NW 21:16:14 11° NNW 21:17:46 10° N visible
30 Jan ? 19:55:52 10° W 19:59:43 26° NW 20:03:40 10° NNE visible
31 Jan ? 20:22:24 10° WNW 20:25:00 15° NW 20:27:38 10° N visible
